Change the Weather History Date:

Tuesday, August 20, 2013

  Actual Average Record
Temperature  
Mean Temperature 81 °F -  
Max Temperature 89 °F - 93 °F (2014)
Min Temperature 73 °F - 70 °F (2012)
Degree Days  
Heating Degree Days 0    
Cooling Degree Days 16    
Growing Degree Days 30 (Base 50)    
Moisture  
Dew Point 73 °F    
Average Humidity 82    
Maximum Humidity 100    
Minimum Humidity 63    
Precipitation  
Precipitation 0.04 in - 2.06 in (2012)
Month to date precipitation  
Year to date precipitation  
Sea Level Pressure  
Sea Level Pressure 30.07 in    
Wind  
Wind Speed 5 mph (NE)    
Max Wind Speed 17 mph    
Max Gust Speed 22 mph    
Visibility 8 miles    
Events Fog , Rain    
T = Trace of Precipitation, MM = Missing Value Source: NWS Daily Summary

Daily Weather History Graph

Daily Weather History Graph

Search for Another Location

Airport or City:

Trip Planner

Search our weather history database for the weather conditions in past years. The results will help you decide how hot, cold, wet, or windy it might be!

Date:

Astronomy

Aug. 20, 2013 Rise Set
Actual Time 7:13 AM EDT 8:19 PM EDT
Civil Twilight 6:48 AM EDT 8:44 PM EDT
Nautical Twilight 6:18 AM EDT 9:13 PM EDT
Astronomical Twilight 5:47 AM EDT 9:44 PM EDT
Moon 7:55 PM EDT (8/20) 6:40 AM EDT (8/20)
Length of Visible Light 13h 56m
Length of Day
13h 06m
Full, 100% of the Moon is Illuminated
Aug 20
Full
Aug 20
Full
Aug 28
Last Quarter
Sep 5
New
Sep 12
First Quarter

Hourly Weather History & Observations

Time (EDT) Temp. Heat Index Dew Point Humidity Pressure Visibility Wind Dir Wind Speed Gust Speed Precip Events Conditions
12:53 AM 77.0 °F - 73.9 °F 90% 30.06 in 10.0 mi NE 5.8 mph - N/A   Clear
1:53 AM 75.9 °F - 73.9 °F 94% 30.06 in 10.0 mi NE 3.5 mph - N/A   Clear
2:53 AM 75.9 °F - 73.0 °F 91% 30.05 in 10.0 mi Calm Calm - N/A   Clear
3:53 AM 75.0 °F - 73.0 °F 94% 30.04 in 10.0 mi North 3.5 mph - N/A   Clear
4:53 AM 75.0 °F - 73.0 °F 94% 30.03 in 10.0 mi NNE 4.6 mph - N/A   Clear
5:53 AM 73.9 °F - 73.0 °F 97% 30.01 in 10.0 mi North 5.8 mph - N/A   Clear
6:53 AM 73.9 °F - 72.0 °F 93% 30.05 in 10.0 mi Calm Calm - N/A   Scattered Clouds
7:05 AM 73.4 °F - 71.6 °F 94% 30.03 in 10.0 mi Calm Calm - N/A   Mostly Cloudy
7:10 AM 73.4 °F - 71.6 °F 94% 30.02 in 6.0 mi East 4.6 mph - N/A   Mostly Cloudy
7:18 AM 73.4 °F - 71.6 °F 94% 30.03 in 2.0 mi East 5.8 mph - N/A   Overcast
7:29 AM 73.4 °F - 71.6 °F 94% 30.03 in 0.5 mi ENE 4.6 mph - N/A Fog Fog
7:41 AM 73.4 °F - 73.4 °F 100% 30.04 in 0.5 mi ENE 4.6 mph - N/A Fog Fog
7:53 AM 73.9 °F - 73.0 °F 97% 30.07 in 0.5 mi ENE 4.6 mph - N/A Fog Fog
8:07 AM 75.2 °F - 73.4 °F 94% 30.04 in 1.0 mi East 4.6 mph - N/A   Overcast
8:27 AM 75.2 °F - 73.4 °F 94% 30.05 in 7.0 mi East 5.8 mph - N/A   Overcast
8:53 AM 77.0 °F - 75.0 °F 94% 30.09 in 10.0 mi ENE 4.6 mph - N/A   Scattered Clouds
9:53 AM 80.1 °F 84.5 °F 73.9 °F 81% 30.10 in 10.0 mi Calm Calm - N/A   Mostly Cloudy
10:53 AM 84.0 °F 92.6 °F 75.9 °F 76% 30.11 in 10.0 mi East 3.5 mph - N/A   Scattered Clouds
11:53 AM 84.9 °F 94.1 °F 75.9 °F 74% 30.12 in 10.0 mi South 4.6 mph - N/A   Scattered Clouds
12:53 PM 88.0 °F 95.6 °F 73.0 °F 61% 30.10 in 10.0 mi SE 9.2 mph - N/A   Scattered Clouds
1:29 PM 87.8 °F 97.6 °F 75.2 °F 66% 30.06 in 10.0 mi South 12.7 mph 16.1 mph N/A   Mostly Cloudy
1:53 PM 88.0 °F 97.5 °F 75.0 °F 65% 30.09 in 10.0 mi SSE 13.8 mph 19.6 mph N/A   Mostly Cloudy
2:53 PM 84.0 °F 91.9 °F 75.0 °F 74% 30.10 in 2.0 mi South 16.1 mph 21.9 mph 0.04 in Rain Rain
3:30 PM 78.8 °F - 75.2 °F 89% 30.06 in 3.0 mi North 4.6 mph - 0.00 in   Mostly Cloudy
3:53 PM 78.1 °F - 73.9 °F 87% 30.10 in 3.0 mi North 10.4 mph - 0.00 in   Mostly Cloudy
4:36 PM 77.0 °F - 73.4 °F 89% 30.07 in 10.0 mi North 3.5 mph - N/A   Scattered Clouds
4:53 PM 77.0 °F - 73.9 °F 90% 30.09 in 10.0 mi NNW 4.6 mph - N/A   Scattered Clouds
5:53 PM 77.0 °F - 73.0 °F 88% 30.09 in 10.0 mi NNW 4.6 mph - N/A   Scattered Clouds
6:53 PM 77.0 °F - 73.0 °F 88% 30.08 in 10.0 mi North 4.6 mph - N/A   Scattered Clouds
7:53 PM 75.9 °F - 73.0 °F 91% 30.09 in 10.0 mi North 4.6 mph - N/A   Scattered Clouds
8:53 PM 75.0 °F - 73.0 °F 94% 30.09 in 10.0 mi ENE 4.6 mph - N/A   Scattered Clouds
9:53 PM 73.9 °F - 72.0 °F 93% 30.10 in 10.0 mi ENE 4.6 mph - N/A   Clear
10:53 PM 73.9 °F - 72.0 °F 93% 30.12 in 10.0 mi ENE 3.5 mph - N/A   Clear
11:53 PM 73.9 °F - 72.0 °F 93% 30.13 in 10.0 mi NE 3.5 mph - N/A   Clear